Location: Asheville, NC
(35.6000°N, 82.5500°W)
Time: 11:46:36
(UTC-05:00)

Hubble Space Telescope - Pass Details

Date: 12 January 2018
Orbit: 537 x 541 km, 28.5° (Epoch: 20 February)

Event Time Altitude Azimuth Distance (km) Brightness Sun altitude
Exits shadow 05:25:41 17° 170° (S) 1,406 3.0 -26.8°
Drops below altitude 10° 05:27:20 10° 149° (SSE) 1,781 3.9 -26.5°
Sets 05:30:04 0° 131° (SE) 2,670 5.2 -25.9°
